Previsão horária em Cernavoda

Hoje, 1 Agosto, Domingo

Tempo Temperatura Precipitação Vento Pressão Humidade
00:00 +24°C° 0 mm 3 m/s 756 mmHg 80%
01:00 +24°C° 0 mm 3 m/s 756 mmHg 81%
02:00 +24°C° 0 mm 2 m/s 756 mmHg 82%
03:00 +24°C° 0.1 mm 2 m/s 756 mmHg 82%
04:00 +23°C° 0.1 mm 2 m/s 756 mmHg 83%
05:00 +23°C° 0.1 mm 2 m/s 756 mmHg 83%
06:00 +26°C° 0 mm 2 m/s 756 mmHg 73%
07:00 +28°C° 0 mm 2 m/s 756 mmHg 62%
08:00 +30°C° 0 mm 2 m/s 756 mmHg 53%
09:00 +32°C° 0 mm 2 m/s 756 mmHg 47%
10:00 +35°C° 0 mm 2 m/s 756 mmHg 41%
11:00 +37°C° 0 mm 2 m/s 756 mmHg 35%
12:00 +38°C° 0 mm 2 m/s 756 mmHg 33%
13:00 +39°C° 0 mm 2 m/s 755 mmHg 30%
14:00 +39°C° 0 mm 2 m/s 755 mmHg 29%
15:00 +39°C° 0 mm 2 m/s 755 mmHg 29%
16:00 +39°C° 0 mm 2 m/s 755 mmHg 29%
17:00 +38°C° 0 mm 3 m/s 755 mmHg 30%
18:00 +36°C° 0 mm 4 m/s 755 mmHg 37%
19:00 +33°C° 0 mm 4 m/s 755 mmHg 44%
20:00 +30°C° 0 mm 5 m/s 755 mmHg 51%
21:00 +29°C° 0 mm 5 m/s 755 mmHg 56%
22:00 +27°C° 0 mm 5 m/s 755 mmHg 62%
23:00 +26°C° 0 mm 4 m/s 755 mmHg 67%

Amanhã, 2 Agosto, Segunda-feira

Tempo Temperatura Precipitação Vento Pressão Humidade
00:00 +26°C° 0 mm 4 m/s 755 mmHg 69%
01:00 +26°C° 0 mm 4 m/s 755 mmHg 71%
02:00 +25°C° 0 mm 3 m/s 755 mmHg 73%
03:00 +25°C° 0 mm 4 m/s 755 mmHg 72%
04:00 +25°C° 0 mm 4 m/s 755 mmHg 72%
05:00 +25°C° 0 mm 4 m/s 755 mmHg 71%
06:00 +27°C° 0 mm 5 m/s 755 mmHg 61%
07:00 +30°C° 0 mm 5 m/s 755 mmHg 51%
08:00 +33°C° 0 mm 6 m/s 754 mmHg 40%
09:00 +36°C° 0 mm 6 m/s 754 mmHg 35%
10:00 +39°C° 0 mm 6 m/s 754 mmHg 29%
11:00 +41°C° 0 mm 5 m/s 754 mmHg 24%
12:00 +42°C° 0 mm 5 m/s 753 mmHg 22%
13:00 +43°C° 0 mm 4 m/s 753 mmHg 19%
14:00 +44°C° 0 mm 4 m/s 753 mmHg 17%
15:00 +43°C° 0 mm 4 m/s 752 mmHg 19%
16:00 +42°C° 0 mm 5 m/s 752 mmHg 21%
17:00 +42°C° 0 mm 5 m/s 752 mmHg 22%
18:00 +37°C° 0 mm 5 m/s 753 mmHg 30%
19:00 +34°C° 0 mm 5 m/s 753 mmHg 37%
20:00 +30°C° 0 mm 5 m/s 754 mmHg 45%
21:00 +29°C° 0 mm 4 m/s 754 mmHg 48%
22:00 +28°C° 0 mm 3 m/s 754 mmHg 51%
23:00 +27°C° 0 mm 3 m/s 755 mmHg 55%

Depois de amanhã, 3 Agosto, Terça-feira

Tempo Temperatura Precipitação Vento Pressão Humidade
00:00 +26°C° 0 mm 3 m/s 755 mmHg 58%
01:00 +26°C° 0 mm 3 m/s 755 mmHg 60%
02:00 +26°C° 0 mm 3 m/s 756 mmHg 63%
03:00 +25°C° 0 mm 4 m/s 756 mmHg 67%
04:00 +25°C° 0 mm 4 m/s 756 mmHg 70%
05:00 +23°C° 0 mm 5 m/s 757 mmHg 74%
06:00 +25°C° 0 mm 5 m/s 757 mmHg 69%
07:00 +27°C° 0 mm 5 m/s 758 mmHg 65%
08:00 +28°C° 0 mm 5 m/s 758 mmHg 60%
09:00 +30°C° 0 mm 5 m/s 758 mmHg 54%
10:00 +32°C° 0 mm 5 m/s 758 mmHg 47%
11:00 +34°C° 0 mm 5 m/s 758 mmHg 41%
12:00 +35°C° 0 mm 5 m/s 758 mmHg 37%
13:00 +36°C° 0 mm 4 m/s 758 mmHg 34%
14:00 +37°C° 0 mm 4 m/s 758 mmHg 30%
15:00 +36°C° 0 mm 4 m/s 758 mmHg 34%
16:00 +35°C° 0 mm 4 m/s 758 mmHg 37%
17:00 +34°C° 0 mm 4 m/s 758 mmHg 40%
18:00 +32°C° 0 mm 4 m/s 758 mmHg 50%
19:00 +29°C° 0 mm 4 m/s 758 mmHg 59%
20:00 +27°C° 0 mm 4 m/s 758 mmHg 69%
21:00 +26°C° 0 mm 4 m/s 759 mmHg 72%
22:00 +26°C° 0 mm 4 m/s 759 mmHg 75%
23:00 +25°C° 0 mm 3 m/s 759 mmHg 77%

4 Agosto, Quarta-feira

Tempo Temperatura Precipitação Vento Pressão Humidade
00:00 +25°C° 0 mm 3 m/s 759 mmHg 78%
01:00 +25°C° 0 mm 2 m/s 759 mmHg 79%
02:00 +25°C° 0 mm 1 m/s 759 mmHg 79%
03:00 +24°C° 0.6 mm 2 m/s 759 mmHg 81%
04:00 +24°C° 0.6 mm 3 m/s 759 mmHg 83%
05:00 +23°C° 0.6 mm 4 m/s 760 mmHg 85%
06:00 +25°C° 0.7 mm 5 m/s 759 mmHg 77%
07:00 +26°C° 0.7 mm 5 m/s 759 mmHg 69%
08:00 +27°C° 0.7 mm 6 m/s 759 mmHg 61%
09:00 +29°C° 0.2 mm 6 m/s 759 mmHg 54%
10:00 +30°C° 0.2 mm 5 m/s 759 mmHg 48%
11:00 +33°C° 0.2 mm 5 m/s 759 mmHg 41%
12:00 +34°C° 0.1 mm 5 m/s 758 mmHg 39%
13:00 +35°C° 0.1 mm 5 m/s 758 mmHg 36%
14:00 +36°C° 0.1 mm 6 m/s 757 mmHg 34%
15:00 +34°C° 0.4 mm 6 m/s 757 mmHg 41%
16:00 +32°C° 0.4 mm 6 m/s 757 mmHg 47%
17:00 +29°C° 0.4 mm 6 m/s 757 mmHg 54%
18:00 +28°C° 0.1 mm 5 m/s 758 mmHg 59%
19:00 +27°C° 0.1 mm 5 m/s 758 mmHg 64%
20:00 +26°C° 0.1 mm 4 m/s 758 mmHg 69%
21:00 +25°C° 0 mm 4 m/s 758 mmHg 74%
22:00 +25°C° 0 mm 3 m/s 758 mmHg 79%
23:00 +24°C° 0 mm 3 m/s 758 mmHg 83%

5 Agosto, Quinta-feira

Tempo Temperatura Precipitação Vento Pressão Humidade
00:00 +24°C° 0 mm 3 m/s 758 mmHg 85%
01:00 +24°C° 0 mm 2 m/s 758 mmHg 87%
02:00 +24°C° 0 mm 2 m/s 758 mmHg 88%
03:00 +24°C° 0 mm 2 m/s 758 mmHg 89%
04:00 +23°C° 0 mm 2 m/s 758 mmHg 90%
05:00 +23°C° 0 mm 2 m/s 757 mmHg 91%
06:00 +26°C° 0 mm 3 m/s 757 mmHg 81%
07:00 +28°C° 0 mm 3 m/s 757 mmHg 71%
08:00 +30°C° 0 mm 3 m/s 757 mmHg 61%
09:00 +33°C° 0 mm 4 m/s 757 mmHg 52%
10:00 +35°C° 0 mm 4 m/s 757 mmHg 42%
11:00 +38°C° 0 mm 4 m/s 756 mmHg 33%
12:00 +39°C° 0 mm 5 m/s 756 mmHg 31%
13:00 +40°C° 0 mm 5 m/s 756 mmHg 30%
14:00 +40°C° 0 mm 6 m/s 755 mmHg 28%
15:00 +39°C° 0 mm 7 m/s 755 mmHg 31%
16:00 +38°C° 0 mm 8 m/s 754 mmHg 35%
17:00 +37°C° 0 mm 8 m/s 754 mmHg 38%
18:00 +33°C° 0 mm 8 m/s 754 mmHg 48%
19:00 +30°C° 0 mm 7 m/s 754 mmHg 58%
20:00 +28°C° 0 mm 6 m/s 754 mmHg 69%
21:00 +27°C° 0 mm 5 m/s 754 mmHg 69%
22:00 +27°C° 0 mm 3 m/s 755 mmHg 70%
23:00 +26°C° 0 mm 1 m/s 755 mmHg 71%

6 Agosto, Sexta-feira

Tempo Temperatura Precipitação Vento Pressão Humidade
00:00 +26°C° 0 mm 1 m/s 755 mmHg 72%
01:00 +26°C° 0 mm 2 m/s 754 mmHg 72%
02:00 +26°C° 0 mm 2 m/s 754 mmHg 72%
03:00 +25°C° 0 mm 2 m/s 753 mmHg 77%
04:00 +25°C° 0 mm 2 m/s 753 mmHg 81%
05:00 +24°C° 0 mm 2 m/s 753 mmHg 85%
06:00 +26°C° 0 mm 2 m/s 753 mmHg 79%
07:00 +27°C° 0 mm 2 m/s 753 mmHg 73%
08:00 +29°C° 0 mm 2 m/s 753 mmHg 68%
09:00 +29°C° 0.2 mm 2 m/s 753 mmHg 67%
10:00 +29°C° 0.2 mm 2 m/s 753 mmHg 66%
11:00 +29°C° 0.2 mm 2 m/s 754 mmHg 65%
12:00 +28°C° 0.4 mm 2 m/s 754 mmHg 64%
13:00 +28°C° 0.4 mm 3 m/s 754 mmHg 64%
14:00 +27°C° 0.4 mm 3 m/s 754 mmHg 63%
15:00 +26°C° 1.9 mm 3 m/s 753 mmHg 68%
16:00 +25°C° 1.9 mm 4 m/s 753 mmHg 73%
17:00 +22°C° 1.9 mm 4 m/s 753 mmHg 78%
18:00 +22°C° 0.1 mm 4 m/s 753 mmHg 77%
19:00 +22°C° 0.1 mm 3 m/s 753 mmHg 76%
20:00 +22°C° 0.1 mm 3 m/s 753 mmHg 75%
21:00 +23°C° 0.1 mm 2 m/s 754 mmHg 77%
22:00 +23°C° 0.1 mm 2 m/s 754 mmHg 78%
23:00 +22°C° 0.1 mm 1 m/s 755 mmHg 79%
Mostrar mais

Necessitamos do seu Consentimento

A Meteoprog e os seus Fornecedores de Serviços podem armazenar e aceder a dados pessoais como cookies, identificadores do dispositivo ou outras tecnologias semelhantes existentes no seu dispositivo e processar estes dados para personalizar conteúdos e anúncios, assim como funcionalidades nas redes sociais e análise de tráfego.

  • Armazenar e/ou aceder a informações no seu dispositivo

    Os cookies, identificadores do dispositivo ou outras informações podem ser armazenados ou acedidos no seu dispositivo, para os fins acima indicados.

  • Anúncios e conteúdos personalizados, medição de anúncios e conteúdos, dados sobre o público-alvo e desenvolvimento de produtos

    Os anúncios e os conteúdos podem ser personalizados com base num perfil. Podem ser adicionados dados adicionais para uma maior personalização dos anúncios e dos conteúdos. A eficácia dos anúncios e dos conteúdos pode ser medida. Podem ser obtidas informações sobre o público que visualizou os anúncios e os conteúdos. Estes dados podem ser usados para desenvolver ou melhorar sistemas, softwares ou a experiência do utilizador.

Ao clicar em "Eu concordo”, permitirá o uso de cookies, identificadores do dispositivo e web beacons mencionados ou outras tecnologias semelhantes. As configurações do navegador do seu dispositivo podem ser alteradas.

Para certos fins, podem ser invocados interesses legítimos ao invés de consentimento. Pode ler mais informação sobre este assunto na nossa Política de Privacidade e Cookies.